Location: Andrest
(43.3200°N, 0.0641°E)
Time: 04:44:18
(UTC+00:00)

SL-8 Rocket - Pass Details

Date: 23 April 2021
Orbit: 958 x 989 km, 82.9° (Epoch: 11 May)

Event Time Altitude Azimuth Distance (km) Brightness Sun altitude
Rises 02:56:53 0° 331° (NNW) 3,699 7.2 -20.8°
Reaches altitude 10° 03:01:50 10° 297° (WNW) 2,750 6.1 -20.1°
Enters shadow 03:02:54 11° 287° (WNW) 2,695 6.0 -20.0°
